[[{"header":{"parameterUnit":"m.s-1","parameterCategory":2,"la1":30.2991,"la2":30.254,"lo1":-89.0895,"lo2":-89.0444,"dy":0.0017,"dx":0.0017,"nx":28,"ny":28,"refTime":"2025-04-19T09:00:00:Z","depth":"0","parameterNumber":2,"parameterNumberName":"U-component_of_CURRENTS"},"data":[0,0,0,0,0,0,0,0,0,0,0,0,0,0,0,0,0,0,0,0,0,0,0,0,0,0,0,0,0,0,0,0,0,0,0,0,0,0,0,0,0,0,0,0,0,0,0,0,0,0,0,0,0,0,0,0,0,0,0.2193,0.2193,0,0.218,0.218,0.2179,0.2148,0.2148,0.2147,0.2147,0.2105,0.2105,0.2104,0,0,0,0,0,0,0,0,0,0,0,0,0,0.2188,0.2188,0.2193,0.2193,0.2193,0.218,0.218,0.2179,0.2148,0.2148,0.2147,0.2147,0.2106,0.2105,0.2104,0,0,0,0,0,0,0,0,0,0,0,0,0,0.2182,0.2188,0.2193,0.2178,0.2176,0.218,0.2179,0.2179,0.2148,0.2148,0.2147,0.2147,0.2106,0.2105,0.2104,0.211,0,0,0.2101,0.21,0,0,0,0,0,0,0,0,0.2183,0.2182,0.218,0.2179,0.2177,0.2167,0.2163,0.2155,0.2149,0.2157,0.2147,0.2146,0.2125,0.2123,0.2119,0.2108,0.2107,0.21,0.21,0.2099,0.2099,0,0,0,0,0,0,0,0.2183,0.2182,0.2185,0.218,0.2179,0.2171,0.2169,0.2161,0.2143,0.2156,0.2154,0.2157,0.2124,0.212,0.2118,0.2106,0.2101,0.21,0.2099,0.2099,0.2126,0.2127,0,0,0,0,0,0,0.219,0.2183,0.2186,0.2185,0.2181,0.2172,0.2169,0.2169,0.2143,0.2139,0.2157,0.2155,0.2122,0.2119,0.2116,0.2141,0.2099,0.2098,0.2098,0.2125,0.2126,0.2128,0,0,0,0,0,0,0.219,0.219,0.2186,0.2186,0.2185,0.2173,0.2172,0.2169,0.2169,0.2145,0.214,0.2161,0.2121,0.2117,0.2119,0.2138,0.2098,0.2097,0.2123,0.2125,0.2127,0.2179,0,0,0,0,0,0,0.219,0.219,0.2193,0.2186,0.2185,0.2195,0.2173,0.217,0.2172,0.217,0.2146,0.2142,0.2121,0.2121,0.2118,0.2136,0.2096,0.2121,0.2124,0.2126,0.2175,0.2182,0.2188,0,0,0,0,0,0.219,0.2193,0.2193,0.2194,0.2189,0.2195,0.2194,0.2182,0.2173,0.2178,0.2165,0.2142,0.2135,0.2121,0.2117,0.2136,0.212,0.2123,0.2126,0.2172,0.2181,0.2188,0,0,0,0,0,0,0.2185,0.2191,0.219,0.2193,0.2199,0.2191,0.2194,0.219,0.2184,0.218,0.2155,0.215,0.2161,0.2145,0.213,0.2153,0.2126,0.2128,0.2162,0.217,0.2176,0.2176,0.2095,0,0,0,0,0,0.219,0.2195,0.2201,0.2203,0.2209,0.2205,0.2207,0.2202,0.2197,0.2193,0.2179,0.217,0.2171,0.2168,0.2162,0.2172,0.2175,0.2184,0.2191,0.2196,0.2195,0.2226,0.2235,0.2138,0.2138,0.2138,0,0,0.2185,0.2192,0.2192,0.2204,0.2206,0.2216,0.2204,0.2211,0.2218,0.2191,0.2194,0.2191,0.218,0.2192,0.2196,0.218,0.2229,0.22,0.2205,0.22,0.223,0.2239,0.2248,0.214,0.214,0.2139,0,0,0.2184,0.2191,0.2198,0.2209,0.2224,0.2226,0.2233,0.2236,0.2236,0.2244,0.2232,0.2244,0.2234,0.2236,0.2235,0.2276,0.2264,0.2278,0.2305,0.2336,0.2344,0.2351,0.2381,0.239,0.2279,0.2279,0.2279,0,0.2178,0.2188,0.2201,0.2215,0.2223,0.2234,0.2244,0.2253,0.2254,0.2262,0.2251,0.2266,0.2256,0.2281,0.2294,0.229,0.2305,0.2274,0.2344,0.2351,0.2357,0.2386,0.2395,0.2282,0.2281,0.2281,0.2281,0,0.2184,0.2195,0.2202,0.2224,0.2238,0.2249,0.2268,0.2283,0.2288,0.2295,0.2322,0.232,0.2327,0.2335,0.2323,0.2368,0.2365,0.2351,0.2322,0.237,0.2397,0.2406,0.2286,0.2285,0.2284,0.2283,0,0,0.2157,0.2197,0.2198,0.2209,0.2243,0.2252,0.2282,0.2307,0.2327,0.2342,0.2367,0.2383,0.2388,0.2388,0.2388,0.2414,0.2476,0.2403,0.2403,0.2429,0.2551,0.2554,0.2563,0.2476,0.2478,0.2479,0.2557,0,0.2154,0.2178,0.2201,0.2221,0.2234,0.2264,0.2291,0.2321,0.2343,0.2374,0.2397,0.2419,0.2407,0.2419,0.2447,0.2468,0.25,0.2456,0.2503,0.2504,0.2498,0.2574,0.2529,0.2595,0.2565,0.2567,0.2568,0,0.2146,0.2167,0.2184,0.2223,0.2232,0.2248,0.2295,0.232,0.2377,0.2399,0.2436,0.2452,0.25,0.248,0.2549,0.2524,0.2541,0.2557,0.256,0.2547,0.2523,0.254,0.2612,0.2578,0.2581,0.258,0.2579,0,0.2113,0.2151,0.2162,0.2174,0.2224,0.2239,0.2268,0.2323,0.2348,0.2416,0.2445,0.2501,0.2534,0.257,0.2607,0.2583,0.2685,0.2651,0.2672,0.2673,0.2635,0.2629,0.2673,0.2701,0.2701,0.2701,0.2701,0,0.2095,0.2101,0.2146,0.215,0.2168,0.2217,0.2242,0.2286,0.2352,0.2389,0.2451,0.2497,0.2559,0.262,0.2638,0.2698,0.2713,0.2696,0.2701,0.2653,0.2648,0.2615,0.2586,0.2704,0.2703,0.2703,0.2702,0,0.2047,0.2077,0.2087,0.2136,0.2147,0.2158,0.2211,0.2239,0.2314,0.2368,0.2394,0.2508,0.2601,0.2663,0.274,0.2742,0.2733,0.2803,0.2747,0.2743,0.2712,0.2687,0.2604,0.252,0.2837,0.2838,0.2838,0,0.2021,0.2025,0.2056,0.2062,0.2077,0.2102,0.2125,0.2202,0.2241,0.237,0.2401,0.2523,0.2607,0.2743,0.2791,0.2856,0.2761,0.283,0.2769,0.2726,0.2702,0.2565,0.2487,0.2744,0.2744,0.2744,0.2744,0,0.1975,0.1984,0.1996,0.2003,0.2017,0.2029,0.2075,0.2096,0.22,0.2262,0.2374,0.2458,0.2635,0.271,0.2815,0.2839,0.2718,0.2827,0.2798,0.2655,0.2492,0.2407,0.2676,0.2742,0.2742,0.2742,0.2742,0.2742,0.1935,0.1925,0.194,0.1938,0.1951,0.1952,0.1938,0.201,0.2055,0.2143,0.2282,0.2391,0.2599,0.2757,0.276,0.2787,0.2709,0.2737,0.272,0.2591,0.2476,0.2747,0.2804,0.2804,0.2805,0.2805,0.2805,0,0.1883,0.1878,0.1878,0.1864,0.1843,0.1876,0.1899,0.1884,0.1909,0.2054,0.2144,0.2354,0.2493,0.2638,0.2774,0.2707,0.2547,0.2648,0.2452,0.2386,0.2666,0.2631,0.2635,0.2635,0.2635,0.2635,0.2635,0.2635,0.1858,0.1829,0.1821,0.1757,0.1748,0.1691,0.1682,0.1688,0.1767,0.1868,0.1995,0.2137,0.2462,0.2719,0.275,0.2671,0.2448,0.2366,0.2306,0.2545,0.2551,0.2557,0.2519,0.2499,0.2498,0.1933,0.1929,0.1927]},{"header":{"parameterUnit":"m.s-1","parameterCategory":2,"la1":30.2991,"la2":30.254,"lo1":-89.0895,"lo2":-89.0444,"dy":0.0017,"dx":0.0017,"nx":28,"ny":28,"refTime":"2025-04-19T09:00:00:Z","depth":"0","parameterNumber":3,"parameterNumberName":"V-component_of_CURRENTS"},"data":[0,0,0,0,0,0,0,0,0,0,0,0,0,0,0,0,0,0,0,0,0,0,0,0,0,0,0,0,0,0,0,0,0,0,0,0,0,0,0,0,0,0,0,0,0,0,0,0,0,0,0,0,0,0,0,0,0,0,0.0031,0.0031,0,-0.0027,-0.0027,-0.0028,-0.0062,-0.0062,-0.0062,-0.0062,-0.0138,-0.014,-0.0142,0,0,0,0,0,0,0,0,0,0,0,0,0,0.007,0.007,0.0031,0.0031,0.003,-0.0027,-0.0027,-0.0028,-0.0062,-0.0062,-0.0062,-0.0062,-0.0137,-0.014,-0.0142,0,0,0,0,0,0,0,0,0,0,0,0,0,0.0036,0.007,0.0031,0.0008,0.0005,-0.0026,-0.0027,-0.0029,-0.0062,-0.0062,-0.0062,-0.0062,-0.0136,-0.0139,-0.0142,-0.016,0,0,-0.0152,-0.0153,0,0,0,0,0,0,0,0,0.0038,0.0035,0.0012,0.0009,0.0006,-0.0036,-0.0042,-0.0073,-0.0062,-0.0038,-0.0062,-0.0062,-0.0105,-0.011,-0.0123,-0.0164,-0.0167,-0.0152,-0.0154,-0.0155,-0.0156,0,0,0,0,0,0,0,0.0041,0.0037,0.0007,0.0011,0.0008,-0.0015,-0.0019,-0.0048,-0.0071,-0.004,-0.0042,-0.0046,-0.0106,-0.012,-0.0125,-0.0168,-0.0152,-0.0154,-0.0156,-0.0157,-0.0221,-0.0221,0,0,0,0,0,0,0.0052,0.0039,0.0009,0.0006,0.0024,-0.0015,-0.0021,-0.0023,-0.0071,-0.0078,-0.0046,-0.0048,-0.0114,-0.0121,-0.0127,-0.0137,-0.0155,-0.0158,-0.0159,-0.0221,-0.0221,-0.0221,0,0,0,0,0,0,0.0053,0.005,0.0011,0.0022,0.0015,-0.0015,-0.0019,-0.0024,-0.0034,-0.0076,-0.0083,-0.0049,-0.0115,-0.0123,-0.0145,-0.014,-0.0159,-0.0162,-0.0221,-0.0221,-0.0221,-0.0165,0,0,0,0,0,0,0.0055,0.0051,0.0053,0.0023,0.0015,-0.0,-0.0019,-0.0025,-0.0036,-0.0039,-0.0081,-0.0088,-0.0115,-0.0141,-0.0148,-0.0145,-0.0164,-0.0221,-0.0221,-0.0221,-0.0167,-0.0163,-0.0159,0,0,0,0,0,0.0057,0.0061,0.0053,0.005,0.0019,0.0,-0.0006,-0.0029,-0.0036,-0.0038,-0.0064,-0.0087,-0.0145,-0.0143,-0.0152,-0.0149,-0.0221,-0.0221,-0.0221,-0.0168,-0.0163,-0.0159,0,0,0,0,0,0,0.008,0.0057,0.0048,0.0046,0.0028,-0.0005,-0.0008,-0.0024,-0.0047,-0.0047,-0.0086,-0.0095,-0.0113,-0.0139,-0.0136,-0.0167,-0.0187,-0.0188,-0.0144,-0.0139,-0.0136,-0.0119,-0.0167,0,0,0,0,0,0.0087,0.0084,0.0058,0.0058,0.0051,0.0023,0.0012,-0.0002,-0.0026,-0.0036,-0.0065,-0.0095,-0.012,-0.0135,-0.0162,-0.018,-0.0202,-0.0184,-0.018,-0.0177,-0.017,-0.0199,-0.0197,-0.022,-0.022,-0.022,0,0,0.0096,0.0084,0.0081,0.0062,0.0047,0.0044,0.0016,0.0007,0.0005,-0.0041,-0.0051,-0.0083,-0.0122,-0.0139,-0.015,-0.016,-0.0181,-0.0176,-0.0173,-0.0168,-0.0199,-0.0196,-0.0194,-0.0219,-0.0219,-0.022,0,0,0.0116,0.0103,0.0108,0.0096,0.0079,0.0061,0.0063,0.0034,0.0023,0.0006,-0.0024,-0.0048,-0.0091,-0.0115,-0.0133,-0.0125,-0.016,-0.0137,-0.0105,-0.0134,-0.0132,-0.0131,-0.0149,-0.015,-0.0136,-0.0135,-0.0135,0,0.0129,0.0132,0.0107,0.011,0.0108,0.0075,0.0084,0.0066,0.0034,0.0029,0.0012,-0.0043,-0.0077,-0.0096,-0.0095,-0.0116,-0.0136,-0.0118,-0.0128,-0.0127,-0.0127,-0.0146,-0.0148,-0.0133,-0.0133,-0.0133,-0.0134,0,0.0152,0.0155,0.0159,0.0154,0.0147,0.0149,0.0125,0.0118,0.0099,0.0079,0.0056,0.0008,-0.0022,-0.004,-0.0067,-0.008,-0.0095,-0.0118,-0.0136,-0.0121,-0.0143,-0.0145,-0.0129,-0.013,-0.0131,-0.0131,0,0,0.0184,0.0177,0.0179,0.0189,0.0172,0.0173,0.0172,0.0163,0.017,0.0128,0.0131,0.0077,0.005,0.0028,-0.0012,-0.004,-0.0057,-0.0074,-0.0077,-0.0085,-0.0113,-0.0119,-0.0123,-0.0082,-0.0083,-0.0083,-0.0127,0,0.0213,0.0233,0.0219,0.0244,0.0255,0.0232,0.0238,0.0225,0.0205,0.0196,0.0144,0.0126,0.0076,0.0064,0.0028,-0.0033,-0.0062,-0.0042,-0.0132,-0.0135,-0.0137,-0.0126,-0.01,-0.0137,-0.013,-0.013,-0.013,0,0.0243,0.0254,0.0281,0.0298,0.0302,0.0309,0.032,0.032,0.0295,0.0277,0.0245,0.0205,0.0161,0.0115,0.0021,0.0036,-0.0031,-0.0083,-0.0087,-0.0113,-0.0146,-0.0153,-0.0142,-0.0263,-0.0135,-0.0135,-0.0134,0,0.0284,0.0301,0.0327,0.0331,0.0339,0.0351,0.0356,0.0344,0.0359,0.0329,0.0333,0.0268,0.0246,0.0151,0.0046,0.0033,-0.0056,-0.0091,-0.016,-0.0161,-0.0166,-0.0167,-0.0276,-0.0158,-0.0158,-0.0157,-0.0157,0,0.0321,0.0345,0.0348,0.0364,0.0404,0.0394,0.0429,0.0422,0.0424,0.045,0.0379,0.0389,0.0253,0.0188,0.0075,-0.0041,-0.0035,-0.0148,-0.0172,-0.0146,-0.0144,-0.0272,-0.0359,-0.0159,-0.0159,-0.0158,-0.0158,0,0.0359,0.036,0.0396,0.0413,0.0423,0.045,0.0482,0.0511,0.05,0.0532,0.053,0.0483,0.0402,0.0265,0.0121,0.0011,-0.0189,-0.0156,-0.0109,-0.0127,-0.0308,-0.0391,-0.0547,-0.0629,-0.0239,-0.0239,-0.0239,0,0.0379,0.04,0.0433,0.046,0.0468,0.0503,0.0536,0.0544,0.0582,0.0598,0.0628,0.0568,0.0547,0.0339,0.0136,-0.0055,-0.0198,-0.0171,-0.0199,-0.0309,-0.0421,-0.0488,-0.0552,-0.0184,-0.0184,-0.0184,-0.0184,0,0.042,0.0429,0.0456,0.0508,0.0547,0.0595,0.0643,0.0687,0.0708,0.0747,0.0792,0.0782,0.0594,0.0427,0.016,0.0018,-0.027,-0.0175,-0.0305,-0.0399,-0.0464,-0.0556,-0.0162,-0.0183,-0.0183,-0.0183,-0.0183,-0.0183,0.0451,0.0475,0.0509,0.0559,0.061,0.0678,0.0726,0.0794,0.0872,0.0942,0.0929,0.0956,0.0701,0.0354,0.0128,-0.0239,-0.0282,-0.0351,-0.0445,-0.0504,-0.0583,-0.0181,-0.0222,-0.0222,-0.0222,-0.0222,-0.0223,0,0.0485,0.0511,0.056,0.062,0.0678,0.0699,0.0794,0.0853,0.0957,0.1054,0.1102,0.1046,0.0708,0.0359,-0.0138,-0.0435,-0.0569,-0.0609,-0.07,-0.0756,-0.0399,-0.0395,-0.0455,-0.0455,-0.0455,-0.0455,-0.0455,-0.0455,0.0505,0.0548,0.0568,0.0661,0.0708,0.0789,0.0845,0.0947,0.1044,0.118,0.1255,0.1293,0.1097,0.0116,-0.0521,-0.0686,-0.0936,-0.099,-0.1134,-0.0881,-0.0864,-0.0847,-0.0862,-0.1019,-0.102,-0.1436,-0.144,-0.1443]}],[{"header":{"parameterUnit":"m.s-1","parameterCategory":2,"la1":30.2991,"la2":30.254,"lo1":-89.0895,"lo2":-89.0444,"dy":0.0017,"dx":0.0017,"nx":28,"ny":28,"refTime":"2025-04-19T09:00:00:Z","depth":"2","parameterNumber":2,"parameterNumberName":"U-component_of_CURRENTS"},"data":[0,0,0,0,0,0,0,0,0,0,0,0,0,0,0,0,0,0,0,0,0,0,0,0,0,0,0,0,0,0,0,0,0,0,0,0,0,0,0,0,0,0,0,0,0,0,0,0,0,0,0,0,0,0,0,0,0,0,0.2178,0.2178,0,0.217,0.217,0.217,0.2145,0.2145,0.2144,0.2144,0.2111,0.211,0.211,0,0,0,0,0,0,0,0,0,0,0,0,0,0.2167,0.2167,0.2178,0.2178,0.2178,0.217,0.217,0.217,0.2145,0.2145,0.2144,0.2144,0.2111,0.211,0.211,0,0,0,0,0,0,0,0,0,0,0,0,0,0.2165,0.2167,0.2178,0.2166,0.2165,0.217,0.217,0.2169,0.2145,0.2145,0.2144,0.2143,0.2111,0.211,0.2109,0.2115,0,0,0.2107,0.2107,0,0,0,0,0,0,0,0,0.2165,0.2165,0.2168,0.2167,0.2166,0.216,0.2154,0.2151,0.2145,0.215,0.2144,0.2143,0.2127,0.2124,0.2121,0.2113,0.2112,0.2107,0.2106,0.2106,0.2106,0,0,0,0,0,0,0,0.2165,0.2165,0.2172,0.2168,0.2167,0.216,0.2159,0.2153,0.2139,0.215,0.2149,0.2151,0.2125,0.2122,0.212,0.2111,0.2107,0.2106,0.2106,0.2105,0.2137,0.2138,0,0,0,0,0,0,0.2171,0.2165,0.2173,0.2172,0.2167,0.2161,0.216,0.2161,0.214,0.2137,0.2152,0.215,0.2124,0.2121,0.2119,0.2147,0.2106,0.2105,0.2105,0.2136,0.2137,0.2139,0,0,0,0,0,0,0.2171,0.2172,0.2173,0.217,0.217,0.2162,0.2163,0.2161,0.2163,0.2142,0.2138,0.2157,0.2123,0.212,0.2125,0.2144,0.2105,0.2104,0.2134,0.2136,0.2138,0.2188,0,0,0,0,0,0,0.2171,0.2172,0.2176,0.2171,0.2171,0.2183,0.2164,0.2161,0.2166,0.2164,0.2146,0.2142,0.2123,0.2126,0.2124,0.2143,0.2103,0.2132,0.2135,0.2137,0.2185,0.2191,0.2197,0,0,0,0,0,0.217,0.2175,0.2176,0.2177,0.2176,0.2183,0.2183,0.2173,0.2167,0.2172,0.2163,0.2142,0.2141,0.2126,0.2123,0.2142,0.2131,0.2134,0.2137,0.2182,0.219,0.2197,0,0,0,0,0,0,0.2166,0.2173,0.2174,0.2179,0.2186,0.218,0.2184,0.2182,0.2179,0.2177,0.2155,0.2151,0.2164,0.215,0.2135,0.2161,0.2134,0.2137,0.2169,0.2177,0.2183,0.2182,0.2103,0,0,0,0,0,0.2171,0.2178,0.2184,0.2189,0.2195,0.2194,0.2196,0.2194,0.2191,0.2189,0.2178,0.2172,0.2175,0.2173,0.2169,0.2181,0.2183,0.2194,0.22,0.2205,0.2204,0.2234,0.2243,0.2148,0.2148,0.2148,0,0,0.2168,0.2175,0.2177,0.219,0.2193,0.2204,0.2193,0.2203,0.2211,0.2187,0.2193,0.2192,0.2184,0.2198,0.2202,0.2187,0.2237,0.2209,0.2214,0.2209,0.2238,0.2247,0.2255,0.2151,0.215,0.215,0,0,0.2168,0.2177,0.2185,0.2196,0.2212,0.2215,0.2223,0.2227,0.2229,0.224,0.2231,0.2244,0.2238,0.2241,0.2241,0.2282,0.2271,0.2284,0.2311,0.2341,0.2349,0.2356,0.2384,0.2393,0.2286,0.2286,0.2286,0,0.2164,0.2175,0.2188,0.2202,0.2211,0.2224,0.2234,0.2244,0.2248,0.2257,0.2248,0.2267,0.2259,0.2285,0.2299,0.2295,0.231,0.2281,0.2349,0.2356,0.2362,0.2389,0.2398,0.2288,0.2288,0.2288,0.2288,0,0.2171,0.2183,0.2191,0.2213,0.2227,0.2239,0.2259,0.2275,0.2283,0.2291,0.232,0.232,0.2329,0.2338,0.2327,0.2372,0.2369,0.2355,0.2328,0.2375,0.24,0.2409,0.2292,0.2291,0.2291,0.229,0,0,0.2147,0.2186,0.2188,0.22,0.2234,0.2243,0.2273,0.23,0.232,0.2337,0.2364,0.2382,0.2388,0.239,0.2391,0.2417,0.2477,0.2406,0.2407,0.2431,0.2549,0.2543,0.2552,0.2478,0.2479,0.248,0.2553,0,0.2146,0.217,0.2192,0.2213,0.2227,0.2257,0.2284,0.2314,0.2338,0.2369,0.2393,0.2417,0.2407,0.242,0.2447,0.2469,0.25,0.2458,0.2502,0.2503,0.249,0.2562,0.2351,0.2398,0.2561,0.2563,0.2564,0,0.2139,0.216,0.2178,0.2217,0.2226,0.2243,0.2289,0.2315,0.2372,0.2395,0.2432,0.245,0.2498,0.2479,0.2546,0.2522,0.254,0.2555,0.2558,0.2538,0.2514,0.2376,0.2407,0.2578,0.2577,0.2576,0.2575,0,0.2108,0.2146,0.2158,0.217,0.2219,0.2235,0.2265,0.2319,0.2345,0.2413,0.2442,0.2498,0.2531,0.2567,0.2602,0.258,0.2676,0.2645,0.2658,0.2658,0.2478,0.246,0.2694,0.2694,0.2693,0.2693,0.2693,0,0.2091,0.2099,0.2143,0.2149,0.2167,0.2216,0.2242,0.2286,0.2351,0.2388,0.245,0.2494,0.2556,0.2614,0.2632,0.2685,0.2703,0.2681,0.2684,0.2492,0.2475,0.2621,0.2612,0.2696,0.2695,0.2695,0.2694,0,0.2045,0.2076,0.2087,0.2136,0.2148,0.216,0.2214,0.2242,0.2316,0.237,0.2396,0.2505,0.2593,0.2653,0.2726,0.2725,0.277,0.2779,0.2557,0.2534,0.2721,0.2714,0.2802,0.2802,0.2803,0.2803,0.2803,0,0.2022,0.2026,0.2059,0.2065,0.2081,0.2108,0.213,0.2207,0.2245,0.237,0.24,0.2516,0.259,0.2716,0.2737,0.2789,0.281,0.2618,0.2536,0.2742,0.2736,0.2728,0.272,0.2317,0.2313,0.231,0.2308,0,0.1977,0.1988,0.2,0.2009,0.2024,0.2037,0.2083,0.2103,0.2205,0.2262,0.2367,0.2442,0.2586,0.2562,0.2647,0.264,0.2594,0.2562,0.2832,0.2335,0.2294,0.2286,0.2292,0.2281,0.2284,0.2285,0.2287,0.2288,0.194,0.1931,0.1947,0.1946,0.196,0.1961,0.1949,0.2013,0.2054,0.212,0.2254,0.23,0.2378,0.2412,0.2372,0.2346,0.2524,0.24,0.2404,0.2413,0.2358,0.2321,0.2302,0.2304,0.2307,0.2309,0.2311,0,0.1887,0.1886,0.1887,0.1875,0.1853,0.1889,0.1911,0.1885,0.1898,0.1993,0.2059,0.1956,0.1974,0.2044,0.198,0.2024,0.1952,0.1932,0.18,0.1831,0.1858,0.1767,0.1558,0.1556,0.1553,0.155,0,0,0.1863,0.1835,0.1827,0.1766,0.176,0.1702,0.1692,0.1679,0.1717,0.1707,0.1719,0.1869,0.1995,0.1728,0.1728,0.1626,0.17,0.1565,0.2179,0.2055,0.2077,0.2155,0.2057,0,0,0,0,0]},{"header":{"parameterUnit":"m.s-1","parameterCategory":2,"la1":30.2991,"la2":30.254,"lo1":-89.0895,"lo2":-89.0444,"dy":0.0017,"dx":0.0017,"nx":28,"ny":28,"refTime":"2025-04-19T09:00:00:Z","depth":"2","parameterNumber":3,"parameterNumberName":"V-component_of_CURRENTS"},"data":[0,0,0,0,0,0,0,0,0,0,0,0,0,0,0,0,0,0,0,0,0,0,0,0,0,0,0,0,0,0,0,0,0,0,0,0,0,0,0,0,0,0,0,0,0,0,0,0,0,0,0,0,0,0,0,0,0,0,-0.0032,-0.0033,0,-0.0086,-0.0087,-0.0087,-0.0117,-0.0117,-0.0117,-0.0117,-0.0189,-0.0191,-0.0193,0,0,0,0,0,0,0,0,0,0,0,0,0,0.0003,0.0003,-0.0032,-0.0033,-0.0033,-0.0086,-0.0087,-0.0088,-0.0117,-0.0117,-0.0117,-0.0117,-0.0188,-0.019,-0.0193,0,0,0,0,0,0,0,0,0,0,0,0,0,-0.0029,0.0003,-0.0032,-0.0054,-0.0056,-0.0086,-0.0087,-0.0088,-0.0117,-0.0117,-0.0117,-0.0117,-0.0187,-0.019,-0.0193,-0.0211,0,0,-0.0202,-0.0203,0,0,0,0,0,0,0,0,-0.0027,-0.003,-0.005,-0.0052,-0.0055,-0.0094,-0.0101,-0.013,-0.0117,-0.0095,-0.0117,-0.0117,-0.0158,-0.0163,-0.0175,-0.0215,-0.0218,-0.0202,-0.0204,-0.0205,-0.0206,0,0,0,0,0,0,0,-0.0024,-0.0028,-0.0055,-0.0051,-0.0054,-0.0075,-0.0079,-0.0106,-0.0127,-0.0097,-0.0099,-0.0103,-0.016,-0.0172,-0.0177,-0.0219,-0.0202,-0.0205,-0.0206,-0.0208,-0.0268,-0.0268,0,0,0,0,0,0,-0.0013,-0.0026,-0.0053,-0.0056,-0.0039,-0.0075,-0.008,-0.0082,-0.0127,-0.0133,-0.0103,-0.0104,-0.0167,-0.0173,-0.0179,-0.0187,-0.0205,-0.0208,-0.0209,-0.0268,-0.0268,-0.0268,0,0,0,0,0,0,-0.0012,-0.0015,-0.0051,-0.0041,-0.0047,-0.0075,-0.0078,-0.0083,-0.0092,-0.0131,-0.0138,-0.0105,-0.0167,-0.0175,-0.0196,-0.0191,-0.0209,-0.0212,-0.0269,-0.0268,-0.0268,-0.0214,0,0,0,0,0,0,-0.0011,-0.0014,-0.0012,-0.0041,-0.0047,-0.0061,-0.0078,-0.0084,-0.0094,-0.0096,-0.0135,-0.0142,-0.0168,-0.0192,-0.0199,-0.0195,-0.0214,-0.0269,-0.0268,-0.0268,-0.0216,-0.0212,-0.0209,0,0,0,0,0,-0.001,-0.0004,-0.0012,-0.0015,-0.0044,-0.0061,-0.0066,-0.0087,-0.0094,-0.0095,-0.012,-0.0141,-0.0196,-0.0194,-0.0203,-0.0199,-0.0269,-0.0269,-0.0268,-0.0218,-0.0213,-0.0209,0,0,0,0,0,0,0.0014,-0.0008,-0.0017,-0.0018,-0.0035,-0.0065,-0.0068,-0.0082,-0.0103,-0.0104,-0.014,-0.0149,-0.0165,-0.0191,-0.0188,-0.0217,-0.0236,-0.0237,-0.0194,-0.019,-0.0186,-0.017,-0.0216,0,0,0,0,0,0.0021,0.0018,-0.0006,-0.0006,-0.0012,-0.0039,-0.0048,-0.0062,-0.0084,-0.0093,-0.012,-0.0148,-0.0173,-0.0186,-0.0213,-0.0229,-0.025,-0.0233,-0.0229,-0.0226,-0.0219,-0.0247,-0.0245,-0.0267,-0.0267,-0.0267,0,0,0.003,0.0018,0.0017,-0.0001,-0.0016,-0.0018,-0.0044,-0.0053,-0.0054,-0.0098,-0.0107,-0.0137,-0.0174,-0.0191,-0.0201,-0.021,-0.023,-0.0226,-0.0222,-0.0217,-0.0247,-0.0245,-0.0243,-0.0267,-0.0267,-0.0267,0,0,0.0051,0.0038,0.0044,0.0033,0.0016,-0.0,0.0001,-0.0026,-0.0036,-0.0051,-0.0081,-0.0103,-0.0143,-0.0166,-0.0184,-0.0177,-0.021,-0.0188,-0.0157,-0.0184,-0.0183,-0.0181,-0.02,-0.0201,-0.0186,-0.0186,-0.0186,0,0.0065,0.0068,0.0043,0.0047,0.0045,0.0013,0.0022,0.0005,-0.0024,-0.0029,-0.0045,-0.0098,-0.013,-0.0148,-0.0147,-0.0167,-0.0187,-0.0168,-0.0179,-0.0178,-0.0177,-0.0197,-0.0199,-0.0183,-0.0184,-0.0184,-0.0184,0,0.0089,0.0092,0.0096,0.0091,0.0085,0.0087,0.0064,0.0057,0.004,0.002,-0.0001,-0.0047,-0.0076,-0.0094,-0.0119,-0.0132,-0.0147,-0.0169,-0.0186,-0.0172,-0.0194,-0.0196,-0.018,-0.0181,-0.0181,-0.0182,0,0,0.0122,0.0114,0.0117,0.0126,0.011,0.0111,0.0111,0.0102,0.0109,0.0069,0.0071,0.002,-0.0006,-0.0027,-0.0065,-0.0093,-0.0109,-0.0126,-0.0129,-0.0137,-0.0165,-0.0172,-0.0175,-0.0134,-0.0135,-0.0135,-0.0179,0,0.0151,0.0171,0.0158,0.0182,0.0193,0.017,0.0176,0.0163,0.0144,0.0135,0.0084,0.0068,0.0019,0.0008,-0.0027,-0.0087,-0.0115,-0.0095,-0.0183,-0.0186,-0.0188,-0.0178,-0.0162,-0.0199,-0.0182,-0.0182,-0.0182,0,0.0182,0.0192,0.0219,0.0235,0.0239,0.0246,0.0256,0.0257,0.0232,0.0215,0.0184,0.0145,0.0103,0.0058,-0.0033,-0.0018,-0.0084,-0.0135,-0.0139,-0.0165,-0.0198,-0.0214,-0.0205,-0.0187,-0.0187,-0.0186,-0.0186,0,0.0223,0.0239,0.0265,0.0268,0.0276,0.0288,0.0292,0.0281,0.0295,0.0266,0.0271,0.0207,0.0185,0.0094,-0.0009,-0.0022,-0.011,-0.0143,-0.0211,-0.0213,-0.0225,-0.0227,-0.0209,-0.0208,-0.0208,-0.0208,-0.0208,0,0.026,0.0283,0.0286,0.0301,0.034,0.033,0.0364,0.0358,0.0359,0.0384,0.0316,0.0325,0.0193,0.0129,0.0019,-0.0095,-0.009,-0.02,-0.0224,-0.0206,-0.0205,-0.0219,-0.0219,-0.021,-0.021,-0.0209,-0.0209,0,0.0297,0.0298,0.0332,0.0349,0.0358,0.0386,0.0417,0.0444,0.0434,0.0465,0.0463,0.0416,0.0335,0.0202,0.0061,-0.0046,-0.0164,-0.0209,-0.0173,-0.0192,-0.0256,-0.0254,-0.0289,-0.029,-0.029,-0.0291,-0.0291,0,0.0317,0.0336,0.0369,0.0395,0.0403,0.0438,0.047,0.0478,0.0513,0.0527,0.0556,0.0497,0.0472,0.0267,0.0068,-0.0119,-0.0152,-0.0235,-0.0262,-0.0244,-0.0264,-0.0261,-0.0258,-0.0259,-0.0259,-0.0259,-0.0259,0,0.0356,0.0365,0.0391,0.0442,0.048,0.0526,0.0572,0.0614,0.0634,0.067,0.071,0.0696,0.051,0.0336,0.0076,-0.0059,-0.0205,-0.0242,-0.0234,-0.0237,-0.0218,-0.0237,-0.0234,-0.0259,-0.0259,-0.0259,-0.0259,-0.0259,0.0386,0.0409,0.0442,0.0492,0.0541,0.0607,0.0652,0.0711,0.0783,0.083,0.0823,0.08,0.0599,0.0277,0.0051,-0.0201,-0.0193,-0.029,-0.0289,-0.0287,-0.0273,-0.0255,-0.03,-0.03,-0.03,-0.0301,-0.0301,0,0.0416,0.0443,0.0491,0.0549,0.0603,0.0627,0.0717,0.0757,0.0847,0.0898,0.0926,0.0739,0.0558,0.0318,-0.0044,-0.0256,-0.0281,-0.0332,-0.0312,-0.031,-0.0308,-0.0294,-0.0328,-0.0328,-0.0329,-0.033,0,0,0.0433,0.0474,0.0493,0.0581,0.0631,0.0701,0.0754,0.082,0.0871,0.0912,0.0912,0.0896,0.0631,0.0367,0.0081,-0.0124,-0.0177,-0.0174,-0.013,-0.0072,-0.0068,-0.0261,-0.0234,0,0,0,0,0]}],[{"header":{"parameterUnit":"m.s-1","parameterCategory":2,"la1":30.2991,"la2":30.254,"lo1":-89.0895,"lo2":-89.0444,"dy":0.0017,"dx":0.0017,"nx":28,"ny":28,"refTime":"2025-04-19T09:00:00:Z","depth":"4","parameterNumber":2,"parameterNumberName":"U-component_of_CURRENTS"},"data":[0,0,0,0,0,0,0,0,0,0,0,0,0,0,0,0,0,0,0,0,0,0,0,0,0,0,0,0,0,0,0,0,0,0,0,0,0,0,0,0,0,0,0,0,0,0,0,0,0,0,0,0,0,0,0,0,0,0,0.1447,0.1448,0,0.1496,0.1496,0.1497,0.1539,0.1539,0.154,0.154,0.159,0.1591,0.1592,0,0,0,0,0,0,0,0,0,0,0,0,0,0.1374,0.1375,0.1447,0.1448,0.1449,0.1496,0.1496,0.1497,0.1538,0.1539,0.154,0.1541,0.159,0.1591,0.1592,0,0,0,0,0,0,0,0,0,0,0,0,0,0.141,0.1375,0.1447,0.1477,0.148,0.1496,0.1496,0.1497,0.1538,0.1539,0.154,0.1541,0.159,0.1591,0.1592,0.158,0,0,0.1595,0.1596,0,0,0,0,0,0,0,0,0.1408,0.1413,0.1471,0.1475,0.1478,0.1514,0.1489,0.1525,0.1538,0.1514,0.154,0.1542,0.1565,0.1568,0.1573,0.1582,0.1584,0.1595,0.1596,0.1596,0.1597,0,0,0,0,0,0,0,0.1406,0.1411,0.1465,0.1472,0.1476,0.1482,0.1488,0.1496,0.1532,0.1516,0.152,0.1528,0.1567,0.1572,0.1574,0.1585,0.1595,0.1596,0.1597,0.1597,0.1682,0.1683,0,0,0,0,0,0,0.1403,0.1409,0.1463,0.1466,0.1447,0.1482,0.1489,0.15,0.1532,0.1539,0.1527,0.153,0.1569,0.1573,0.1576,0.1649,0.1596,0.1597,0.1598,0.168,0.1682,0.1684,0,0,0,0,0,0,0.1402,0.1408,0.1461,0.144,0.1447,0.1483,0.1494,0.15,0.1537,0.1541,0.1547,0.1561,0.157,0.1575,0.1614,0.1648,0.1598,0.1599,0.1678,0.1681,0.1683,0.174,0,0,0,0,0,0,0.1399,0.1407,0.1428,0.144,0.1448,0.149,0.1494,0.1501,0.1539,0.1544,0.1571,0.1575,0.1571,0.1613,0.1616,0.1649,0.16,0.1676,0.1679,0.1682,0.1736,0.1744,0.175,0,0,0,0,0,0.1396,0.1415,0.1428,0.1436,0.1471,0.1491,0.1497,0.1523,0.154,0.1559,0.1584,0.1576,0.1634,0.1615,0.1618,0.1652,0.1675,0.1678,0.1682,0.1732,0.1742,0.175,0,0,0,0,0,0,0.1395,0.1421,0.1437,0.1464,0.1487,0.15,0.1525,0.154,0.1574,0.159,0.1593,0.1598,0.1646,0.1641,0.1621,0.1686,0.1654,0.1659,0.1692,0.1701,0.1708,0.1704,0.1601,0,0,0,0,0,0.1404,0.1428,0.1449,0.1475,0.149,0.1514,0.1532,0.155,0.1574,0.1592,0.1611,0.1635,0.1656,0.1674,0.1688,0.1722,0.172,0.1747,0.1755,0.1761,0.1761,0.1789,0.1799,0.1695,0.1695,0.1695,0,0,0.141,0.143,0.1445,0.1478,0.15,0.1523,0.1528,0.1565,0.1592,0.159,0.1644,0.1661,0.1671,0.1711,0.1732,0.1717,0.1792,0.1765,0.177,0.1767,0.1794,0.1804,0.1812,0.1698,0.1697,0.1697,0,0,0.1425,0.1456,0.1478,0.15,0.154,0.1552,0.157,0.1603,0.163,0.1674,0.1685,0.1724,0.1756,0.1771,0.178,0.1836,0.1829,0.1849,0.1885,0.1913,0.1922,0.1929,0.1948,0.1957,0.1854,0.1854,0.1854,0,0.1435,0.1464,0.1488,0.1513,0.1537,0.1569,0.1595,0.1623,0.1667,0.1693,0.1702,0.1769,0.1781,0.1825,0.185,0.1852,0.1865,0.1849,0.1922,0.1929,0.1936,0.1954,0.1962,0.1857,0.1857,0.1857,0.1856,0,0.1454,0.1489,0.1506,0.1549,0.1576,0.1607,0.1643,0.1683,0.1722,0.1747,0.1812,0.1834,0.1872,0.1888,0.1888,0.1947,0.1941,0.1926,0.1897,0.195,0.1965,0.1973,0.1862,0.1861,0.186,0.1859,0,0,0.1443,0.1507,0.1517,0.1543,0.16,0.162,0.1675,0.1724,0.1766,0.1818,0.1869,0.1918,0.194,0.1952,0.1965,0.1994,0.2057,0.1988,0.1988,0.2003,0.2123,0.2003,0.2,0.2062,0.2063,0.2065,0.2119,0,0.1454,0.1502,0.1534,0.1586,0.1612,0.1661,0.1706,0.1759,0.1808,0.1866,0.1908,0.1961,0.1961,0.1994,0.2024,0.205,0.208,0.2043,0.2074,0.2075,0.1957,0.2006,0.207,0.2124,0.2126,0.2127,0.2128,0,0.1455,0.149,0.154,0.1607,0.1625,0.1665,0.1743,0.1788,0.187,0.1911,0.1972,0.2005,0.207,0.2057,0.2127,0.2108,0.2124,0.2135,0.2137,0.2006,0.1969,0.206,0.2143,0.2141,0.214,0.2139,0.2139,0,0.142,0.1492,0.1534,0.1557,0.1636,0.1679,0.1729,0.1809,0.1851,0.1949,0.199,0.2063,0.2111,0.2146,0.218,0.2165,0.2244,0.222,0.2123,0.2115,0.2182,0.2173,0.2263,0.2263,0.2262,0.2262,0.2262,0,0.1401,0.1438,0.1528,0.1549,0.1605,0.1672,0.1737,0.1799,0.1886,0.1932,0.2016,0.2055,0.2139,0.2189,0.2205,0.2189,0.2266,0.2133,0.2121,0.2206,0.2199,0.2188,0.2178,0.2264,0.2264,0.2263,0.2263,0,0.1349,0.1409,0.146,0.1556,0.1588,0.1631,0.1731,0.1773,0.187,0.1934,0.197,0.2074,0.2137,0.2198,0.226,0.2207,0.2211,0.2186,0.2283,0.2276,0.2058,0.2051,0.2074,0.207,0.2067,0.2064,0.2062,0,0.1322,0.1346,0.1451,0.1482,0.1531,0.1604,0.1649,0.1754,0.1793,0.1922,0.1942,0.2045,0.2099,0.2089,0.2167,0.2188,0.2165,0.215,0.2088,0.2053,0.204,0.2038,0.2035,0.2057,0.2056,0.2055,0.2054,0,0.1269,0.1322,0.1365,0.1429,0.1485,0.1529,0.1605,0.1616,0.1731,0.1834,0.1863,0.1895,0.1962,0.2007,0.2044,0.2053,0.2147,0.2116,0.2122,0.2063,0.2032,0.2022,0.2023,0.2043,0.2045,0.2046,0.2047,0,0.1235,0.125,0.1316,0.1358,0.1423,0.1436,0.1481,0.1525,0.1572,0.1709,0.1717,0.1829,0.1936,0.1939,0.1973,0.1976,0.1942,0.1872,0.189,0.1903,0.1823,0.1758,0.1677,0,0,0,0,0,0.1191,0.1198,0.1237,0.1273,0.1331,0.1366,0.1444,0.1492,0.1595,0.1572,0.1637,0.1688,0.1731,0.1796,0.1766,0.1909,0.1958,0.1867,0.1888,0.1981,0.1994,0.1917,0,0,0,0,0,0,0.1161,0.1199,0.1207,0.1192,0.1201,0.1247,0.129,0.1361,0.1352,0.1467,0.1501,0.1594,0.1667,0.1733,0.1737,0.1757,0.1737,0.1944,0.194,0.1974,0.1986,0.1996,0.1921,0,0,0,0,0]},{"header":{"parameterUnit":"m.s-1","parameterCategory":2,"la1":30.2991,"la2":30.254,"lo1":-89.0895,"lo2":-89.0444,"dy":0.0017,"dx":0.0017,"nx":28,"ny":28,"refTime":"2025-04-19T09:00:00:Z","depth":"4","parameterNumber":3,"parameterNumberName":"V-component_of_CURRENTS"},"data":[0,0,0,0,0,0,0,0,0,0,0,0,0,0,0,0,0,0,0,0,0,0,0,0,0,0,0,0,0,0,0,0,0,0,0,0,0,0,0,0,0,0,0,0,0,0,0,0,0,0,0,0,0,0,0,0,0,0,-0.0051,-0.0051,0,-0.0083,-0.0084,-0.0084,-0.0105,-0.0105,-0.0105,-0.0105,-0.0157,-0.0158,-0.0159,0,0,0,0,0,0,0,0,0,0,0,0,0,-0.0031,-0.0032,-0.0051,-0.0051,-0.0051,-0.0083,-0.0084,-0.0084,-0.0105,-0.0105,-0.0105,-0.0105,-0.0156,-0.0158,-0.0159,0,0,0,0,0,0,0,0,0,0,0,0,0,-0.005,-0.0032,-0.0051,-0.0065,-0.0067,-0.0083,-0.0084,-0.0084,-0.0105,-0.0105,-0.0105,-0.0105,-0.0156,-0.0158,-0.0159,-0.017,0,0,-0.0165,-0.0166,0,0,0,0,0,0,0,0,-0.0049,-0.0051,-0.0063,-0.0064,-0.0066,-0.009,-0.0096,-0.0114,-0.0105,-0.0091,-0.0105,-0.0105,-0.0135,-0.0139,-0.0146,-0.0172,-0.0174,-0.0166,-0.0167,-0.0168,-0.0168,0,0,0,0,0,0,0,-0.0048,-0.005,-0.0064,-0.0063,-0.0065,-0.0078,-0.0081,-0.0099,-0.0113,-0.0092,-0.0094,-0.0096,-0.0137,-0.0144,-0.0147,-0.0175,-0.0166,-0.0167,-0.0169,-0.0169,-0.0214,-0.0214,0,0,0,0,0,0,-0.0041,-0.0048,-0.0063,-0.0065,-0.0057,-0.0079,-0.0082,-0.0082,-0.0113,-0.0117,-0.0096,-0.0097,-0.014,-0.0145,-0.0149,-0.0156,-0.0168,-0.017,-0.0171,-0.0214,-0.0214,-0.0214,0,0,0,0,0,0,-0.004,-0.0042,-0.0062,-0.0057,-0.0061,-0.0079,-0.008,-0.0083,-0.009,-0.0115,-0.012,-0.0099,-0.014,-0.0146,-0.0161,-0.0158,-0.017,-0.0172,-0.0214,-0.0214,-0.0214,-0.0175,0,0,0,0,0,0,-0.004,-0.0041,-0.004,-0.0057,-0.006,-0.0068,-0.0079,-0.0084,-0.0091,-0.0092,-0.012,-0.0124,-0.0141,-0.0158,-0.0163,-0.0161,-0.0174,-0.0214,-0.0214,-0.0214,-0.0176,-0.0173,-0.0171,0,0,0,0,0,-0.0039,-0.0033,-0.004,-0.0042,-0.0058,-0.0067,-0.0071,-0.0085,-0.0091,-0.0092,-0.0109,-0.0124,-0.0162,-0.016,-0.0166,-0.0164,-0.0214,-0.0214,-0.0214,-0.0177,-0.0174,-0.0171,0,0,0,0,0,0,-0.0021,-0.0036,-0.0043,-0.0042,-0.0053,-0.0071,-0.0072,-0.0082,-0.0097,-0.0098,-0.0123,-0.0129,-0.0142,-0.0159,-0.0156,-0.0178,-0.0191,-0.0192,-0.0161,-0.0158,-0.0156,-0.0141,-0.0175,0,0,0,0,0,-0.0018,-0.0019,-0.0035,-0.0033,-0.0037,-0.0055,-0.0061,-0.007,-0.0084,-0.0091,-0.011,-0.013,-0.0147,-0.0156,-0.0175,-0.0186,-0.0203,-0.019,-0.0187,-0.0185,-0.0178,-0.0202,-0.02,-0.0213,-0.0213,-0.0213,0,0,-0.001,-0.0018,-0.0018,-0.003,-0.0039,-0.0039,-0.0059,-0.0064,-0.0062,-0.0094,-0.0099,-0.0122,-0.0148,-0.0159,-0.0167,-0.0173,-0.0191,-0.0185,-0.0183,-0.0177,-0.0201,-0.02,-0.0199,-0.0213,-0.0213,-0.0213,0,0,0.0008,-0.0002,0.0003,-0.0004,-0.0016,-0.0026,-0.0026,-0.0044,-0.0051,-0.0061,-0.0082,-0.0101,-0.0128,-0.0143,-0.0155,-0.0151,-0.0177,-0.0161,-0.0136,-0.016,-0.0158,-0.0158,-0.0177,-0.0178,-0.0159,-0.0159,-0.0159,0,0.0018,0.0022,0.0003,0.0008,0.0007,-0.0017,-0.0008,-0.002,-0.0039,-0.0043,-0.0057,-0.0094,-0.0118,-0.0129,-0.0129,-0.0144,-0.0162,-0.0144,-0.0155,-0.0155,-0.0155,-0.0175,-0.0177,-0.0157,-0.0158,-0.0158,-0.0158,0,0.0038,0.0042,0.0045,0.0043,0.004,0.0043,0.0028,0.0023,0.0009,-0.0005,-0.0021,-0.0056,-0.0076,-0.0091,-0.0109,-0.0119,-0.0133,-0.0149,-0.016,-0.0151,-0.0173,-0.0176,-0.0155,-0.0155,-0.0156,-0.0156,0,0,0.0064,0.0061,0.0063,0.007,0.006,0.0063,0.0065,0.0061,0.0067,0.0036,0.0039,0.0,-0.0022,-0.0037,-0.0066,-0.0089,-0.0107,-0.0116,-0.0118,-0.0129,-0.0157,-0.0155,-0.0159,-0.0127,-0.0127,-0.0127,-0.0172,0,0.0086,0.0104,0.0096,0.0117,0.0126,0.0111,0.0119,0.0111,0.0096,0.0091,0.005,0.0039,-0.0,-0.0009,-0.0039,-0.0087,-0.0113,-0.0093,-0.0168,-0.017,-0.0166,-0.0161,-0.0128,-0.0174,-0.0174,-0.0175,-0.0175,0,0.0109,0.0118,0.0141,0.0157,0.0161,0.017,0.0181,0.0185,0.0168,0.0155,0.0131,0.0101,0.0066,0.003,-0.0047,-0.0034,-0.0089,-0.0132,-0.0136,-0.0148,-0.0174,-0.0186,-0.018,-0.018,-0.018,-0.0179,-0.0179,0,0.0134,0.0152,0.0173,0.0177,0.0188,0.0201,0.0209,0.0204,0.0217,0.0197,0.0201,0.0149,0.0131,0.0055,-0.0031,-0.004,-0.0118,-0.0143,-0.0195,-0.0196,-0.0201,-0.0201,-0.0199,-0.0199,-0.0198,-0.0198,-0.0198,0,0.0158,0.0177,0.0188,0.0199,0.0233,0.0231,0.0263,0.0261,0.0267,0.0287,0.0237,0.024,0.0136,0.0081,-0.001,-0.0104,-0.0103,-0.0186,-0.0206,-0.0184,-0.0182,-0.0203,-0.0203,-0.02,-0.02,-0.0199,-0.0199,0,0.0176,0.0183,0.0212,0.0233,0.0244,0.0268,0.0303,0.0327,0.0325,0.0349,0.0349,0.031,0.0237,0.0132,0.0013,-0.0066,-0.0163,-0.0199,-0.0158,-0.0175,-0.0233,-0.023,-0.0261,-0.0261,-0.0262,-0.0262,-0.0262,0,0.0185,0.02,0.0237,0.026,0.027,0.0305,0.0334,0.035,0.0377,0.0393,0.041,0.0362,0.0316,0.0161,0.0037,-0.013,-0.0161,-0.0215,-0.0235,-0.0222,-0.0238,-0.0235,-0.0233,-0.0262,-0.0262,-0.0262,-0.0262,0,0.0201,0.0214,0.0236,0.0283,0.0319,0.0361,0.0403,0.043,0.0454,0.0459,0.0465,0.0389,0.0309,0.0176,0.005,-0.0075,-0.0182,-0.0218,-0.0219,-0.0239,-0.0224,-0.0239,-0.0236,-0.0263,-0.0263,-0.0263,-0.0263,0,0.0212,0.0229,0.026,0.0301,0.0351,0.04,0.0422,0.0458,0.0487,0.0506,0.0508,0.0421,0.0374,0.0205,0.0089,-0.0031,-0.0074,-0.0127,-0.0134,-0.0134,-0.009,-0.0053,-0.005,0,0,0,0,0,0.0218,0.0235,0.0276,0.032,0.0373,0.04,0.0462,0.0482,0.0511,0.0524,0.0518,0.0445,0.0286,0.0224,0.0105,0.0061,-0.0109,-0.0086,-0.0177,-0.0268,-0.0267,-0.0238,0,0,0,0,0,0,0.022,0.0253,0.027,0.0328,0.036,0.0419,0.0458,0.0482,0.0491,0.0506,0.0432,0.0399,0.025,0.0352,0.0098,0.0062,-0.0016,-0.0156,-0.0159,-0.0269,-0.0268,-0.0267,-0.0237,0,0,0,0,0]}]]